Weather History for Coolangatta, QU

Change the Weather History Date:

Sunday, June 23, 2013

  Actual Average (YBBN) Record (YBBN)
Temperature  
Mean Temperature 61 °F -  
Max Temperature 68 °F 66 °F 71 °F (2000)
Min Temperature 54 °F 48 °F 39 °F (2011)
Degree Days  
Heating Degree Days 4    
Growing Degree Days 11 (Base 50)    
Moisture  
Dew Point 49 °F    
Average Humidity 65    
Maximum Humidity 77    
Minimum Humidity 49    
Precipitation  
Precipitation 0.00 in - - ()
Sea Level Pressure  
Sea Level Pressure 30.19 in    
Wind  
Wind Speed 10 mph ()    
Max Wind Speed 15 mph    
Max Gust Speed -    
Visibility 6.2 miles    
Events      
Averages and records for this station are not official NWS values.
T = Trace of Precipitation, MM = Missing Value Source: Averaged Metar Reports

Daily Weather History Graph

Daily Weather History Graph

Search for Another Location

Airport:

Trip Planner

Search our weather history database for the weather conditions in past years. The results will help you decide how hot, cold, wet, or windy it might be!

Date:

Astronomy

Jun. 23, 2013 Rise Set
Actual Time 6:37 AM EST 4:58 PM EST
Civil Twilight 6:11 AM EST 5:24 PM EST
Nautical Twilight 5:42 AM EST 5:53 PM EST
Astronomical Twilight 5:13 AM EST 6:22 PM EST
Moon 4:52 PM EST (6/23) 5:52 AM EST (6/23)
Length of Visible Light 11h 12m
Length of Day
10h 21m
Full, 100% of the Moon is Illuminated
Jun 23
Full
Jun 23
Full
Jun 30
Last Quarter
Jul 8
New
Jul 16
First Quarter

Hourly Weather History & Observations

Time (EST) Temp. Dew Point Humidity Pressure Visibility Wind Dir Wind Speed Gust Speed Precip Events Conditions
12:00 AM 58 °F 47 °F 57% 30.20 in - SSW 11.5 mph - -  
12:00 AM 59.0 °F 46.4 °F 63% 30.18 in 6.2 mi SSW 11.5 mph - N/A   Unknown
12:30 AM 59.0 °F 48.2 °F 67% 30.18 in 6.2 mi SSW 9.2 mph - N/A   Unknown
1:00 AM 59.0 °F 48.2 °F 67% 30.18 in 6.2 mi SW 11.5 mph - N/A   Unknown
1:30 AM 59.0 °F 46.4 °F 63% 30.18 in 6.2 mi SSW 13.8 mph - N/A   Unknown
2:00 AM 59.0 °F 48.2 °F 67% 30.18 in 6.2 mi SSW 12.7 mph - N/A   Unknown
2:30 AM 57.2 °F 48.2 °F 72% 30.18 in 6.2 mi SSW 10.4 mph - N/A   Unknown
3:00 AM 58 °F 47 °F 58% 30.18 in - SSW 11.5 mph - -  
3:00 AM 57.2 °F 46.4 °F 67% 30.18 in 6.2 mi SSW 11.5 mph - N/A   Unknown
3:30 AM 57.2 °F 48.2 °F 72% 30.15 in 6.2 mi SSW 11.5 mph - N/A   Scattered Clouds
4:00 AM 57.2 °F 48.2 °F 72% 30.15 in 6.2 mi SSW 11.5 mph - N/A   Scattered Clouds
4:30 AM 57.2 °F 48.2 °F 72% 30.18 in 6.2 mi SSW 10.4 mph - N/A   Overcast
5:00 AM 57.2 °F 48.2 °F 72% 30.18 in 6.2 mi SSW 11.5 mph - N/A   Overcast
5:30 AM 57.2 °F 46.4 °F 67% 30.18 in 6.2 mi SSW 15.0 mph - N/A   Overcast
6:00 AM 58 °F 47 °F 58% 30.22 in - SW 11.5 mph - -  
6:00 AM 57.2 °F 46.4 °F 67% 30.21 in 6.2 mi SW 11.5 mph - N/A   Mostly Cloudy
6:30 AM 57.2 °F 46.4 °F 67% 30.21 in 6.2 mi SSW 11.5 mph - N/A   Scattered Clouds
7:00 AM 57.2 °F 46.4 °F 67% 30.21 in 6.2 mi SSW 10.4 mph - N/A   Unknown
7:30 AM 59.0 °F 48.2 °F 67% 30.24 in 6.2 mi SSW 9.2 mph - N/A   Unknown
8:00 AM 59.0 °F 46.4 °F 63% 30.24 in 6.2 mi SSW 11.5 mph - N/A   Unknown
8:30 AM 60.8 °F 48.2 °F 63% 30.24 in 6.2 mi SSW 9.2 mph - N/A   Unknown
9:00 AM 62 °F 49 °F 53% 30.26 in - SSW 11.5 mph - -  
9:00 AM 62.6 °F 50.0 °F 63% 30.24 in 6.2 mi SSW 11.5 mph - N/A   Unknown
9:30 AM 62.6 °F 50.0 °F 63% 30.24 in 6.2 mi South 10.4 mph - N/A   Scattered Clouds
10:00 AM 62.6 °F 50.0 °F 63% 30.24 in 6.2 mi South 12.7 mph - N/A   Mostly Cloudy
10:30 AM 64.4 °F 48.2 °F 56% 30.24 in 6.2 mi SSW 11.5 mph - N/A   Overcast
11:00 AM 64.4 °F 51.8 °F 64% 30.24 in 6.2 mi SSW 11.5 mph - N/A   Overcast
11:30 AM 64.4 °F 50.0 °F 59% 30.24 in 6.2 mi SSW 10.4 mph - N/A   Overcast
12:00 PM 66 °F 51 °F 49% 30.22 in - SSW 10.4 mph - -   Overcast
12:00 PM 66.2 °F 51.8 °F 60% 30.21 in 6.2 mi SSW 10.4 mph - N/A   Overcast
12:30 PM 66.2 °F 51.8 °F 60% 30.21 in 6.2 mi South 12.7 mph - N/A   Overcast
1:00 PM 66.2 °F 51.8 °F 60% 30.18 in 6.2 mi SSW 11.5 mph - N/A   Overcast
1:30 PM 68.0 °F 51.8 °F 56% 30.18 in 6.2 mi SSW 12.7 mph - N/A   Mostly Cloudy
2:00 PM 68.0 °F 51.8 °F 56% 30.18 in 6.2 mi South 11.5 mph - N/A   Overcast
2:30 PM 66.2 °F 51.8 °F 60% 30.18 in 6.2 mi SSE 11.5 mph - N/A   Overcast
3:00 PM 65 °F 51 °F 51% 30.18 in - South 10.4 mph - -  
3:00 PM 66.2 °F 51.8 °F 60% 30.18 in 6.2 mi South 10.4 mph - N/A   Scattered Clouds
3:30 PM 66.2 °F 51.8 °F 60% 30.18 in 6.2 mi South 10.4 mph - N/A   Scattered Clouds
4:00 PM 64.4 °F 51.8 °F 64% 30.18 in 6.2 mi SSE 9.2 mph - N/A   Mostly Cloudy
4:30 PM 62.6 °F 51.8 °F 68% 30.18 in 6.2 mi South 8.1 mph - N/A   Overcast
5:00 PM 60.8 °F 51.8 °F 72% 30.18 in 6.2 mi SSW 8.1 mph - N/A   Mostly Cloudy
5:30 PM 60.8 °F 50.0 °F 68% 30.18 in 6.2 mi South 6.9 mph - N/A   Mostly Cloudy
6:00 PM 60 °F 51 °F 63% 30.20 in - SW 6.9 mph - -  
6:00 PM 60.8 °F 50.0 °F 68% 30.18 in 6.2 mi SW 6.9 mph - N/A   Scattered Clouds
6:30 PM 59.0 °F 50.0 °F 72% 30.18 in 6.2 mi SSW 6.9 mph - N/A   Unknown
7:00 PM 59.0 °F 51.8 °F 77% 30.18 in 6.2 mi SW 6.9 mph - N/A   Scattered Clouds
7:30 PM 59.0 °F 50.0 °F 72% 30.18 in 6.2 mi SSW 8.1 mph - N/A   Overcast
8:00 PM 59.0 °F 50.0 °F 72% 30.18 in 6.2 mi SSW 6.9 mph - N/A   Overcast
8:30 PM 59.0 °F 50.0 °F 72% 30.18 in 6.2 mi SW 8.1 mph - N/A   Mostly Cloudy
9:00 PM 58 °F 50 °F 67% 30.19 in - WSW 6.9 mph - -  
9:00 PM 57.2 °F 50.0 °F 77% 30.18 in 6.2 mi WSW 6.9 mph - N/A   Scattered Clouds
9:30 PM 57.2 °F 50.0 °F 77% 30.18 in 6.2 mi WSW 6.9 mph - N/A   Unknown
10:00 PM 59.0 °F 50.0 °F 72% 30.18 in 6.2 mi SW 8.1 mph - N/A   Mostly Cloudy
10:30 PM 59.0 °F 50.0 °F 72% 30.18 in 6.2 mi South 6.9 mph - N/A   Overcast
11:00 PM 59.0 °F 50.0 °F 72% 30.18 in 6.2 mi South 6.9 mph - N/A   Overcast
11:30 PM 60.8 °F 50.0 °F 68% 30.18 in 6.2 mi SSW 8.1 mph - N/A   Overcast